| time (UTC) | temp F | wind direction | speed MPH | gust MPH | rain 1hr in | rain 24hr in | rain mn in | humidity % | barometer mb |
| 20260507163056 | 58 | 300 | 5.0 | 11.0 | 0.00 | 0.02 | 0.00 | 87 | 1019.1 |
| 20260507161552 | 58 | 352 | 4.0 | 13.0 | 0.00 | 0.02 | 0.00 | 88 | 1018.8 |
| 20260507160050 | 57 | 268 | 5.0 | 15.0 | 0.00 | 0.02 | 0.00 | 89 | 1019.1 |
| 20260507154548 | 56 | 297 | 3.0 | 13.0 | 0.00 | 0.07 | 0.00 | 91 | 1019.1 |
| 20260507153101 | 55 | 360 | 5.0 | 15.0 | 0.00 | 0.07 | 0.00 | 91 | 1018.7 |
| 20260507151545 | 55 | 280 | 5.0 | 16.0 | 0.00 | 0.07 | 0.00 | 91 | 1019.1 |
| 20260507150058 | 55 | 352 | 5.0 | 16.0 | 0.00 | 0.07 | 0.00 | 92 | 1019.5 |
| 20260507144544 | 55 | 325 | 6.0 | 13.0 | 0.00 | 0.09 | 0.00 | 91 | 1019.5 |
| 20260507143100 | 55 | 305 | 3.0 | 13.0 | 0.00 | 0.09 | 0.00 | 92 | 1019.8 |
| 20260507141548 | 55 | 321 | 7.0 | 15.0 | 0.00 | 0.09 | 0.00 | 92 | 1019.2 |
| 20260507140048 | 55 | 309 | 5.0 | 15.0 | 0.00 | 0.09 | 0.00 | 93 | 1019.2 |
| 20260507134553 | 55 | 275 | 8.0 | 14.0 | 0.00 | 0.09 | 0.00 | 93 | 1018.3 |
| 20260507133051 | 56 | 278 | 3.0 | 11.0 | 0.00 | 0.09 | 0.00 | 93 | 1019.0 |
| 20260507131551 | 56 | 292 | 4.0 | 14.0 | 0.00 | 0.09 | 0.00 | 93 | 1019.2 |
| 20260507124552 | 56 | 259 | 2.0 | 11.0 | 0.00 | 0.09 | 0.00 | 92 | 1018.9 |
| 20260507123044 | 56 | 232 | 4.0 | 14.0 | 0.00 | 0.09 | 0.00 | 92 | 1018.4 |
| 20260507121549 | 57 | 310 | 4.0 | 16.0 | 0.00 | 0.09 | 0.00 | 91 | 1017.9 |
| 20260507120051 | 57 | 296 | 6.0 | 13.0 | 0.00 | 0.09 | 0.00 | 91 | 1017.5 |
| 20260507114548 | 57 | 255 | 7.0 | 13.0 | 0.00 | 0.09 | 0.00 | 91 | 1017.4 |
| 20260507113050 | 58 | 320 | 6.0 | 12.0 | 0.00 | 0.09 | 0.00 | 90 | 1017.5 |
| 20260507111548 | 58 | 272 | 4.0 | 9.0 | 0.00 | 0.09 | 0.00 | 90 | 1017.4 |
| 20260507110056 | 58 | 281 | 6.0 | 12.0 | 0.00 | 0.09 | 0.00 | 89 | 1017.2 |
| 20260507104549 | 58 | 290 | 4.0 | 12.0 | 0.00 | 0.09 | 0.00 | 90 | 1016.8 |
| 20260507103106 | 58 | 301 | 4.0 | 11.0 | 0.00 | 0.09 | 0.00 | 90 | 1016.9 |
| 20260507101548 | 59 | 297 | 5.0 | 12.0 | 0.00 | 0.09 | 0.00 | 90 | 1016.6 |
| 20260507094549 | 59 | 284 | 4.0 | 12.0 | 0.00 | 0.09 | 0.00 | 89 | 1016.7 |
| 20260507093045 | 59 | 299 | 2.0 | 9.0 | 0.00 | 0.09 | 0.00 | 91 | 1016.6 |
| 20260507091546 | 59 | 0 | 0.0 | 7.0 | 0.00 | 0.09 | 0.00 | 91 | 1016.6 |
| 20260507090048 | 59 | 286 | 2.0 | 9.0 | 0.00 | 0.09 | 0.00 | 91 | 1016.7 |
| 20260507084558 | 59 | 322 | 2.0 | 8.0 | 0.00 | 0.09 | 0.00 | 91 | 1016.7 |
| 20260507083049 | 59 | 267 | 2.0 | 9.0 | 0.00 | 0.09 | 0.00 | 91 | 1016.7 |
| 20260507081548 | 59 | 300 | 2.0 | 7.0 | 0.00 | 0.09 | 0.00 | 92 | 1016.5 |
| 20260507080050 | 59 | 0 | 0.0 | 6.0 | 0.00 | 0.09 | 0.00 | 92 | 1016.8 |
| 20260507074543 | 59 | 299 | 2.0 | 9.0 | 0.00 | 0.09 | 0.00 | 92 | 1016.6 |
| 20260507073044 | 59 | 274 | 2.0 | 5.0 | 0.00 | 0.09 | 0.00 | 93 | 1016.6 |
| 20260507071547 | 59 | 0 | 0.0 | 3.0 | 0.00 | 0.09 | 0.00 | 93 | 1016.8 |
| 20260507064554 | 59 | 0 | 0.0 | 1.0 | 0.00 | 0.09 | 0.00 | 93 | 1016.1 |
| 20260507063048 | 59 | 0 | 0.0 | 0.0 | 0.00 | 0.09 | 0.00 | 92 | 1016.1 |
| 20260507061548 | 59 | 0 | 0.0 | 0.0 | 0.00 | 0.09 | 0.00 | 92 | 1016.4 |
| 20260507060048 | 60 | 244 | 0.0 | 4.0 | 0.00 | 0.09 | 0.00 | 91 | 1016.4 |
| 20260507054605 | 59 | 351 | 1.0 | 6.0 | 0.00 | 0.09 | 0.00 | 92 | 1016.1 |
| 20260507053056 | 59 | 258 | 4.0 | 8.0 | 0.00 | 0.09 | 0.00 | 92 | 1015.6 |
| 20260507051548 | 59 | 317 | 2.0 | 10.0 | 0.00 | 0.09 | 0.00 | 92 | 1015.8 |
| 20260507050054 | 59 | 303 | 3.0 | 9.0 | 0.00 | 0.09 | 0.00 | 92 | 1016.0 |
| 20260507044549 | 60 | 271 | 4.0 | 9.0 | 0.00 | 0.09 | 0.09 | 93 | 1016.0 |
| 20260507043042 | 60 | 294 | 4.0 | 9.0 | 0.00 | 0.09 | 0.09 | 93 | 1016.0 |
| 20260507041552 | 60 | 305 | 2.0 | 6.0 | 0.00 | 0.09 | 0.09 | 93 | 1015.9 |
| 20260507040052 | 60 | 284 | 3.0 | 9.0 | 0.00 | 0.09 | 0.09 | 92 | 1015.8 |
| 20260507034548 | 60 | 0 | 2.0 | 9.0 | 0.00 | 0.09 | 0.09 | 92 | 1015.9 |
| 20260507033048 | 60 | 301 | 0.0 | 9.0 | 0.00 | 0.09 | 0.09 | 92 | 1015.8 |
| 20260507031543 | 60 | 309 | 2.0 | 7.0 | 0.00 | 0.09 | 0.09 | 92 | 1015.5 |
| 20260507030041 | 60 | 300 | 3.0 | 10.0 | 0.00 | 0.09 | 0.09 | 91 | 1015.3 |
| 20260507024552 | 60 | 296 | 3.0 | 7.0 | 0.00 | 0.09 | 0.09 | 91 | 1015.3 |
| 20260507023048 | 60 | 313 | 2.0 | 6.0 | 0.00 | 0.09 | 0.09 | 91 | 1015.1 |
| 20260507021600 | 60 | 306 | 2.0 | 8.0 | 0.00 | 0.09 | 0.09 | 91 | 1015.1 |
| 20260507020105 | 60 | 307 | 4.0 | 9.0 | 0.00 | 0.09 | 0.09 | 90 | 1014.5 |
| 20260507014556 | 60 | 285 | 1.0 | 7.0 | 0.00 | 0.09 | 0.09 | 91 | 1014.8 |
| 20260507013050 | 60 | 305 | 2.0 | 6.0 | 0.00 | 0.09 | 0.09 | 91 | 1014.6 |
| 20260507011557 | 60 | 293 | 3.0 | 7.0 | 0.00 | 0.09 | 0.09 | 90 | 1014.1 |
| 20260507010047 | 60 | 286 | 2.0 | 7.0 | 0.00 | 0.09 | 0.09 | 90 | 1013.8 |
| 20260507004545 | 61 | 253 | 3.0 | 11.0 | 0.00 | 0.09 | 0.09 | 90 | 1013.8 |
| 20260507003041 | 61 | 263 | 3.0 | 9.0 | 0.00 | 0.09 | 0.09 | 90 | 1013.5 |
| 20260507001600 | 61 | 277 | 2.0 | 8.0 | 0.00 | 0.09 | 0.09 | 90 | 1013.8 |
| 20260507000106 | 61 | 265 | 1.0 | 9.0 | 0.00 | 0.09 | 0.09 | 89 | 1013.4 |
| 20260506234604 | 61 | 259 | 3.0 | 11.0 | 0.00 | 0.09 | 0.09 | 89 | 1013.2 |
| 20260506233049 | 61 | 285 | 4.0 | 10.0 | 0.00 | 0.09 | 0.09 | 89 | 1012.9 |
| 20260506231545 | 62 | 298 | 5.0 | 12.0 | 0.00 | 0.09 | 0.09 | 88 | 1012.9 |
| 20260506224542 | 63 | 238 | 4.0 | 12.0 | 0.00 | 0.09 | 0.09 | 87 | 1013.0 |
| 20260506223047 | 64 | 267 | 7.0 | 14.0 | 0.00 | 0.09 | 0.09 | 86 | 1012.8 |
| 20260506221555 | 64 | 287 | 4.0 | 13.0 | 0.00 | 0.09 | 0.09 | 86 | 1012.9 |
| 20260506220048 | 65 | 277 | 6.0 | 14.0 | 0.00 | 0.09 | 0.09 | 84 | 1012.9 |
| 20260506214602 | 66 | 268 | 3.0 | 14.0 | 0.00 | 0.09 | 0.09 | 84 | 1012.8 |
| 20260506213048 | 68 | 290 | 7.0 | 14.0 | 0.00 | 0.09 | 0.09 | 81 | 1012.7 |
| 20260506211548 | 70 | 252 | 5.0 | 13.0 | 0.00 | 0.09 | 0.09 | 80 | 1012.5 |
| 20260506210049 | 69 | 257 | 4.0 | 12.0 | 0.00 | 0.09 | 0.09 | 82 | 1012.8 |
| 20260506204547 | 69 | 233 | 4.0 | 12.0 | 0.00 | 0.09 | 0.09 | 82 | 1012.8 |
| 20260506203047 | 70 | 305 | 4.0 | 13.0 | 0.00 | 0.09 | 0.09 | 80 | 1012.8 |
| 20260506201545 | 72 | 200 | 4.0 | 14.0 | 0.00 | 0.09 | 0.09 | 80 | 1012.8 |
| 20260506200044 | 73 | 266 | 6.0 | 13.0 | 0.00 | 0.09 | 0.09 | 81 | 1012.8 |
| 20260506194549 | 73 | 289 | 4.0 | 12.0 | 0.00 | 0.09 | 0.09 | 82 | 1012.9 |
| 20260506193052 | 73 | 261 | 5.0 | 13.0 | 0.00 | 0.09 | 0.09 | 84 | 1012.8 |
| 20260506191548 | 73 | 269 | 5.0 | 12.0 | 0.00 | 0.09 | 0.09 | 87 | 1013.0 |
| 20260506190052 | 73 | 246 | 4.0 | 11.0 | 0.00 | 0.09 | 0.09 | 89 | 1013.0 |
| 20260506184558 | 73 | 259 | 1.0 | 8.0 | 0.00 | 0.09 | 0.09 | 93 | 1013.1 |
| 20260506183041 | 72 | 0 | 0.0 | 4.0 | 0.00 | 0.09 | 0.09 | 96 | 1012.9 |
| 20260506181556 | 71 | 249 | 0.0 | 6.0 | 0.02 | 0.09 | 0.09 | 97 | 1013.2 |
| 20260506180048 | 70 | 259 | 1.0 | 4.0 | 0.02 | 0.09 | 0.09 | 97 | 1013.1 |
| 20260506174545 | 69 | 0 | 0.0 | 2.0 | 0.02 | 0.09 | 0.09 | 97 | 1013.2 |
| 20260506173114 | 68 | 0 | 0.0 | 3.0 | 0.02 | 0.09 | 0.09 | 97 | 1013.4 |
| 20260506171545 | 67 | 336 | 3.0 | 8.0 | 0.00 | 0.07 | 0.07 | 96 | 1013.1 |
| 20260506170106 | 67 | 0 | 1.0 | 2.0 | 0.00 | 0.07 | 0.07 | 96 | 1013.2 |
| 20260506164548 | 66 | 262 | 2.0 | 4.0 | 0.00 | 0.07 | 0.07 | 96 | 1013.0 |